THYB8K LTFM-LUKK

Flight info

Callsign THYB8K
Flight time 1h 4m
Altitude 30000
Route MAKOL1D/35L MAKOL N600 RORKI DCT BIRLU DCT BARUK DCT LEMPA DCT VOSLE DCT USHUZ/K0828F300 DCT LIPTA
Aircraft A320/M-SDE3FGHIRWY/LB1

Departure

Time 2026-05-04 19:42
Airport İstanbul Airport (LTFM)

Arrival

Time 2026-05-04 20:46
Airport Chişinău International Airport (LUKK)
Time Latitude Longitude Altitude Speed Heading
2026-05-04 19:05 41.26770 28.73529 334 ft 0 kts 178°
2026-05-04 19:29 41.26774 28.73529 330 ft 2 kts 178°
2026-05-04 19:29 41.26791 28.73529 330 ft 2 kts 178°
2026-05-04 19:30 41.26808 28.73528 333 ft 2 kts 178°
2026-05-04 19:30 41.26826 28.73527 330 ft 2 kts 178°
2026-05-04 19:30 41.26843 28.73527 329 ft 3 kts 199°
2026-05-04 19:30 41.26858 28.73539 329 ft 3 kts 237°
2026-05-04 19:31 41.26866 28.73560 332 ft 2 kts 259°
2026-05-04 19:31 41.26869 28.73582 330 ft 3 kts 270°
2026-05-04 19:31 41.26869 28.73585 330 ft 0 kts 273°
2026-05-04 19:35 41.26869 28.73575 330 ft 2 kts 270°
2026-05-04 19:35 41.26870 28.73540 329 ft 5 kts 277°
2026-05-04 19:36 41.26871 28.73481 332 ft 8 kts 267°
2026-05-04 19:36 41.26869 28.73431 333 ft 2 kts 271°
2026-05-04 19:36 41.26870 28.73395 332 ft 5 kts 271°
2026-05-04 19:36 41.26868 28.73333 334 ft 8 kts 269°
2026-05-04 19:37 41.26867 28.73249 332 ft 10 kts 268°
2026-05-04 19:37 41.26866 28.73154 331 ft 10 kts 266°
2026-05-04 19:37 41.26864 28.73127 332 ft 6 kts 269°
2026-05-04 19:37 41.26864 28.73095 332 ft 1 kts 269°
2026-05-04 19:38 41.26864 28.73091 333 ft 1 kts 269°
2026-05-04 19:38 41.26864 28.73068 334 ft 4 kts 269°
2026-05-04 19:38 41.26853 28.73020 330 ft 7 kts 242°
2026-05-04 19:38 41.26837 28.72995 334 ft 3 kts 224°
2026-05-04 19:39 41.26804 28.72972 334 ft 7 kts 196°
2026-05-04 19:39 41.26769 28.72971 330 ft 5 kts 174°
2026-05-04 19:39 41.26733 28.72967 333 ft 6 kts 210°
2026-05-04 19:39 41.26724 28.72953 334 ft 3 kts 236°
2026-05-04 19:40 41.26718 28.72913 334 ft 7 kts 265°
2026-05-04 19:40 41.26714 28.72795 330 ft 16 kts 269°
2026-05-04 19:40 41.26712 28.72662 331 ft 13 kts 269°
2026-05-04 19:40 41.26718 28.72537 332 ft 14 kts 294°
2026-05-04 19:41 41.26750 28.72514 333 ft 1 kts 349°
2026-05-04 19:41 41.26758 28.72512 333 ft 0 kts 353°
2026-05-04 19:41 41.26928 28.72512 333 ft 58 kts 358°
2026-05-04 19:41 41.27531 28.72491 333 ft 113 kts 360°
2026-05-04 19:42 41.28469 28.72467 363 ft 153 kts 358°
2026-05-04 19:42 41.29576 28.72525 834 ft 160 kts 356°
2026-05-04 19:42 41.30685 28.72519 1564 ft 157 kts 360°
2026-05-04 19:42 41.31763 28.72517 2249 ft 158 kts
2026-05-04 19:43 41.32912 28.72517 2710 ft 173 kts
2026-05-04 19:43 41.34173 28.72520 3135 ft 189 kts
2026-05-04 19:43 41.35562 28.72524 3575 ft 209 kts
2026-05-04 19:43 41.37071 28.72530 4187 ft 224 kts
2026-05-04 19:44 41.38629 28.72265 5089 ft 230 kts 343°
2026-05-04 19:44 41.40123 28.71365 5876 ft 240 kts 338°
2026-05-04 19:44 41.41622 28.70406 6754 ft 243 kts 338°
2026-05-04 19:44 41.43158 28.69415 7630 ft 246 kts 339°
2026-05-04 19:45 41.44715 28.68414 8476 ft 250 kts 339°
2026-05-04 19:45 41.46301 28.67398 9303 ft 255 kts 339°
2026-05-04 19:45 41.47910 28.66367 10103 ft 259 kts 340°
2026-05-04 19:45 41.49582 28.65300 10575 ft 274 kts 339°
2026-05-04 19:46 41.51356 28.64173 10957 ft 291 kts 339°
2026-05-04 19:46 41.53244 28.63001 11301 ft 306 kts 343°
2026-05-04 19:46 41.55349 28.62448 11710 ft 312 kts
2026-05-04 19:46 41.57485 28.62960 12351 ft 314 kts 21°
2026-05-04 19:47 41.59356 28.64477 13047 ft 320 kts 40°
2026-05-04 19:47 41.60757 28.66828 13732 ft 329 kts 53°
2026-05-04 19:47 41.62007 28.69416 13991 ft 331 kts 54°
2026-05-04 19:47 41.63247 28.72011 14048 ft 331 kts 54°
2026-05-04 19:48 41.64469 28.74576 14047 ft 331 kts 54°
2026-05-04 19:48 41.65708 28.77170 14048 ft 331 kts 54°
2026-05-04 19:48 41.66949 28.79765 14048 ft 331 kts 54°
2026-05-04 19:48 41.68193 28.82363 14043 ft 331 kts 53°
2026-05-04 19:49 41.69439 28.84961 14046 ft 331 kts 54°
2026-05-04 19:49 41.70685 28.87560 14046 ft 331 kts 54°
2026-05-04 19:49 41.71955 28.90128 14053 ft 330 kts 49°
2026-05-04 19:49 41.73532 28.92336 14048 ft 327 kts 37°
2026-05-04 19:50 41.75423 28.93991 14271 ft 326 kts 26°
2026-05-04 19:50 41.77543 28.95116 14877 ft 329 kts 20°
2026-05-04 19:50 41.79686 28.96138 15498 ft 332 kts 20°
2026-05-04 19:50 41.81866 28.97195 16114 ft 334 kts 20°
2026-05-04 19:51 41.84061 28.98265 16724 ft 337 kts 21°
2026-05-04 19:51 41.86274 28.99343 17347 ft 340 kts 21°
2026-05-04 19:51 41.88509 29.00430 17977 ft 343 kts 21°
2026-05-04 19:51 41.90764 29.01523 18578 ft 346 kts 21°
2026-05-04 19:52 41.93040 29.02623 19144 ft 349 kts 21°
2026-05-04 19:52 41.95336 29.03730 19730 ft 351 kts 21°
2026-05-04 19:52 41.97644 29.04845 20324 ft 354 kts 21°
2026-05-04 19:52 41.99970 29.05972 20894 ft 357 kts 21°
2026-05-04 19:53 42.02315 29.07104 21439 ft 359 kts 19°
2026-05-04 19:53 42.04790 29.07694 21967 ft 365 kts
2026-05-04 19:53 42.07332 29.07241 22466 ft 372 kts 353°
2026-05-04 19:53 42.09886 29.06553 22935 ft 376 kts 353°
2026-05-04 19:54 42.12462 29.05856 23421 ft 378 kts 353°
2026-05-04 19:54 42.14178 29.05396 23717 ft 380 kts 353°
2026-05-04 19:54 42.16781 29.04699 24109 ft 383 kts 353°
2026-05-04 19:54 42.19401 29.03997 24489 ft 385 kts 353°
2026-05-04 19:55 42.22901 29.03063 24975 ft 389 kts 352°
2026-05-04 19:55 42.25561 29.02349 25337 ft 391 kts 352°
2026-05-04 19:55 42.28240 29.01631 25691 ft 394 kts 352°
2026-05-04 19:55 42.30934 29.00907 26037 ft 396 kts 352°
2026-05-04 19:56 42.32765 29.00417 26271 ft 398 kts 352°
2026-05-04 19:56 42.35457 28.99694 26616 ft 400 kts 352°
2026-05-04 19:56 42.38194 28.98952 26965 ft 403 kts 352°
2026-05-04 19:56 42.40948 28.98201 27307 ft 405 kts 352°
2026-05-04 19:57 42.43719 28.97446 27645 ft 408 kts 352°
2026-05-04 19:57 42.46507 28.96689 27971 ft 410 kts 352°
2026-05-04 19:57 42.49318 28.95927 28297 ft 413 kts 352°
2026-05-04 19:57 42.52146 28.95160 28620 ft 415 kts 352°
2026-05-04 19:58 42.54989 28.94392 28932 ft 418 kts 352°
2026-05-04 19:58 42.57851 28.93614 29234 ft 420 kts 351°
2026-05-04 19:58 42.60725 28.92830 29535 ft 422 kts 351°
2026-05-04 19:58 42.63611 28.92041 29935 ft 423 kts 351°
2026-05-04 19:59 42.66483 28.91256 30036 ft 418 kts 351°
2026-05-04 19:59 42.72140 28.89706 30048 ft 416 kts 351°
2026-05-04 20:00 42.77826 28.88162 30050 ft 417 kts 351°
2026-05-04 20:00 42.83518 28.86608 30049 ft 417 kts 351°
2026-05-04 20:01 42.89218 28.85042 30053 ft 418 kts 351°
2026-05-04 20:01 42.94916 28.83480 30048 ft 418 kts 351°
2026-05-04 20:02 43.00592 28.81929 30044 ft 418 kts 351°
2026-05-04 20:02 43.06298 28.80353 30049 ft 418 kts 351°
2026-05-04 20:03 43.12017 28.78776 30049 ft 419 kts 351°
2026-05-04 20:03 43.17732 28.77190 30062 ft 419 kts 351°
2026-05-04 20:04 43.23448 28.75599 30063 ft 419 kts 351°
2026-05-04 20:04 43.29171 28.74009 30060 ft 420 kts 350°
2026-05-04 20:05 43.34903 28.72423 30055 ft 421 kts 350°
2026-05-04 20:05 43.40644 28.70822 30058 ft 421 kts 350°
2026-05-04 20:06 43.46356 28.69234 30063 ft 421 kts 350°
2026-05-04 20:06 43.52107 28.67625 30068 ft 422 kts 350°
2026-05-04 20:07 43.57859 28.66006 30056 ft 422 kts 350°
2026-05-04 20:07 43.63624 28.64387 30050 ft 423 kts 349°
2026-05-04 20:08 43.69395 28.62763 30049 ft 424 kts 349°
2026-05-04 20:08 43.75188 28.61127 30052 ft 424 kts 349°
2026-05-04 20:09 43.80976 28.59490 30050 ft 425 kts 349°
2026-05-04 20:09 43.86766 28.57848 30046 ft 425 kts 349°
2026-05-04 20:10 43.92566 28.56200 30043 ft 426 kts 349°
2026-05-04 20:10 43.98339 28.54562 30044 ft 426 kts 349°
2026-05-04 20:11 44.04163 28.52902 30048 ft 427 kts 349°
2026-05-04 20:11 44.09996 28.51236 30050 ft 428 kts 349°
2026-05-04 20:12 44.15837 28.49569 30044 ft 428 kts 349°
2026-05-04 20:12 44.21687 28.47897 30045 ft 429 kts 349°
2026-05-04 20:13 44.27552 28.46215 30055 ft 430 kts 348°
2026-05-04 20:13 44.33418 28.44520 30058 ft 431 kts 348°
2026-05-04 20:14 44.39260 28.42834 30056 ft 431 kts 348°
2026-05-04 20:14 44.45141 28.41136 30065 ft 432 kts 348°
2026-05-04 20:15 44.51025 28.39427 30059 ft 432 kts 348°
2026-05-04 20:15 44.56916 28.37716 30055 ft 432 kts 348°
2026-05-04 20:16 44.62807 28.36001 30054 ft 432 kts 348°
2026-05-04 20:16 44.68713 28.34282 30055 ft 433 kts 348°
2026-05-04 20:17 44.74579 28.32570 30062 ft 433 kts 348°
2026-05-04 20:17 44.80486 28.30845 30066 ft 433 kts 348°
2026-05-04 20:18 44.86396 28.29115 30064 ft 433 kts 348°
2026-05-04 20:18 44.92305 28.27375 30060 ft 434 kts 347°
2026-05-04 20:19 44.98216 28.25634 30060 ft 434 kts 347°
2026-05-04 20:19 45.04091 28.23895 30056 ft 434 kts 347°
2026-05-04 20:20 45.10007 28.22143 30047 ft 434 kts 347°
2026-05-04 20:20 45.15925 28.20389 30043 ft 434 kts 347°
2026-05-04 20:21 45.21842 28.18632 30047 ft 434 kts 347°
2026-05-04 20:21 45.30759 28.16321 30043 ft 436 kts 356°
2026-05-04 20:22 45.36895 28.16050 29697 ft 446 kts 356°
2026-05-04 20:22 45.40002 28.15908 29406 ft 446 kts 356°
2026-05-04 20:22 45.43097 28.15760 29125 ft 445 kts 356°
2026-05-04 20:23 45.46183 28.15612 28857 ft 443 kts 356°
2026-05-04 20:23 45.49262 28.15465 28561 ft 439 kts 356°
2026-05-04 20:23 45.52291 28.15320 27942 ft 433 kts 356°
2026-05-04 20:23 45.55285 28.15176 27313 ft 428 kts 356°
2026-05-04 20:24 45.58242 28.15035 26693 ft 423 kts 356°
2026-05-04 20:24 45.61167 28.14896 26077 ft 418 kts 357°
2026-05-04 20:24 45.64026 28.14760 25472 ft 415 kts 357°
2026-05-04 20:24 45.66896 28.14627 24873 ft 411 kts 358°
2026-05-04 20:25 45.69742 28.14495 24276 ft 407 kts 358°
2026-05-04 20:25 45.72563 28.14363 23683 ft 404 kts 359°
2026-05-04 20:25 45.75359 28.14247 23040 ft 400 kts
2026-05-04 20:25 45.78104 28.14567 22478 ft 393 kts 11°
2026-05-04 20:26 45.80734 28.15508 21945 ft 387 kts 19°
2026-05-04 20:26 45.83258 28.16802 21415 ft 383 kts 20°
2026-05-04 20:26 45.85762 28.18074 20901 ft 379 kts 20°
2026-05-04 20:26 45.88241 28.19321 20409 ft 376 kts 20°
2026-05-04 20:27 45.90696 28.20556 19925 ft 372 kts 20°
2026-05-04 20:27 45.93129 28.21784 19437 ft 369 kts 20°
2026-05-04 20:27 45.95539 28.23001 18953 ft 365 kts 20°
2026-05-04 20:27 45.97924 28.24210 18459 ft 361 kts 21°
2026-05-04 20:28 46.00292 28.25411 17922 ft 358 kts 21°
2026-05-04 20:28 46.02624 28.26597 17415 ft 353 kts 21°
2026-05-04 20:28 46.04920 28.27765 16912 ft 347 kts 21°
2026-05-04 20:28 46.07183 28.28917 16407 ft 342 kts 21°
2026-05-04 20:29 46.09414 28.30053 15898 ft 338 kts 21°
2026-05-04 20:29 46.11612 28.31176 15397 ft 334 kts 21°
2026-05-04 20:29 46.13793 28.32291 14886 ft 330 kts 21°
2026-05-04 20:29 46.15947 28.33393 14388 ft 327 kts 21°
2026-05-04 20:30 46.18086 28.34489 13881 ft 324 kts 21°
2026-05-04 20:30 46.20197 28.35575 13336 ft 320 kts 21°
2026-05-04 20:30 46.22279 28.36648 12837 ft 315 kts 21°
2026-05-04 20:30 46.24334 28.37705 12352 ft 311 kts 21°
2026-05-04 20:31 46.26340 28.38733 11872 ft 307 kts 20°
2026-05-04 20:31 46.28348 28.39762 11393 ft 304 kts 20°
2026-05-04 20:31 46.30332 28.40777 10928 ft 300 kts 20°
2026-05-04 20:31 46.32244 28.41756 10779 ft 280 kts 20°
2026-05-04 20:32 46.34001 28.42658 10567 ft 259 kts 20°
2026-05-04 20:32 46.35670 28.43520 10414 ft 255 kts 20°
2026-05-04 20:32 46.37343 28.44388 10303 ft 255 kts 20°
2026-05-04 20:32 46.39013 28.45254 10194 ft 255 kts 20°
2026-05-04 20:33 46.40680 28.46112 10085 ft 254 kts 20°
2026-05-04 20:33 46.42353 28.46972 9790 ft 255 kts 20°
2026-05-04 20:33 46.44025 28.47831 9413 ft 253 kts 20°
2026-05-04 20:33 46.45683 28.48683 9063 ft 252 kts 20°
2026-05-04 20:34 46.47335 28.49537 8724 ft 253 kts 20°
2026-05-04 20:34 46.48988 28.50396 8378 ft 252 kts 20°
2026-05-04 20:34 46.50623 28.51248 8041 ft 252 kts 20°
2026-05-04 20:34 46.52276 28.52107 7697 ft 253 kts 20°
2026-05-04 20:35 46.53933 28.52966 7350 ft 253 kts 20°
2026-05-04 20:35 46.55592 28.53829 7003 ft 253 kts 21°
2026-05-04 20:35 46.57249 28.54692 6661 ft 253 kts 21°
2026-05-04 20:35 46.58906 28.55553 6317 ft 253 kts 21°
2026-05-04 20:36 46.60564 28.56396 5959 ft 253 kts 17°
2026-05-04 20:36 46.62309 28.56778 5603 ft 256 kts
2026-05-04 20:36 46.64074 28.56471 5392 ft 253 kts 348°
2026-05-04 20:36 46.65712 28.55573 5149 ft 251 kts 340°
2026-05-04 20:37 46.67294 28.54569 4910 ft 245 kts 340°
2026-05-04 20:37 46.68851 28.53591 4649 ft 241 kts 340°
2026-05-04 20:37 46.70372 28.52639 4416 ft 235 kts 340°
2026-05-04 20:37 46.71868 28.51760 4205 ft 230 kts 347°
2026-05-04 20:38 46.73436 28.51430 4060 ft 227 kts
2026-05-04 20:38 46.74988 28.51749 4007 ft 225 kts 19°
2026-05-04 20:38 46.76426 28.52565 4009 ft 225 kts 24°
2026-05-04 20:38 46.77872 28.53440 3879 ft 224 kts 24°
2026-05-04 20:39 46.79317 28.54309 3790 ft 225 kts 24°
2026-05-04 20:39 46.80761 28.55181 3720 ft 225 kts 24°
2026-05-04 20:39 46.82208 28.56055 3631 ft 226 kts 24°
2026-05-04 20:39 46.83660 28.56929 3533 ft 225 kts 24°
2026-05-04 20:40 46.85105 28.57798 3503 ft 225 kts 24°
2026-05-04 20:40 46.86554 28.58673 3508 ft 225 kts 24°
2026-05-04 20:40 46.87982 28.59532 3501 ft 214 kts 24°
2026-05-04 20:40 46.89309 28.60332 3509 ft 204 kts 24°
2026-05-04 20:41 46.90584 28.61253 3505 ft 204 kts 38°
2026-05-04 20:41 46.91565 28.62725 3508 ft 201 kts 58°
2026-05-04 20:41 46.92090 28.64531 3544 ft 190 kts 78°
2026-05-04 20:41 46.92198 28.66396 3527 ft 180 kts 87°
2026-05-04 20:42 46.92237 28.68213 3385 ft 175 kts 87°
2026-05-04 20:42 46.92264 28.69389 3249 ft 174 kts 87°
2026-05-04 20:42 46.92317 28.71700 2968 ft 166 kts 87°
2026-05-04 20:42 46.92353 28.73336 2754 ft 154 kts 87°
2026-05-04 20:43 46.92387 28.74831 2563 ft 147 kts 88°
2026-05-04 20:43 46.92420 28.76313 2376 ft 146 kts 88°
2026-05-04 20:43 46.92445 28.77319 2238 ft 146 kts 85°
2026-05-04 20:43 46.92486 28.78785 2053 ft 146 kts 86°
2026-05-04 20:44 46.92515 28.80266 1873 ft 146 kts 86°
2026-05-04 20:44 46.92545 28.81746 1673 ft 145 kts 86°
2026-05-04 20:44 46.92575 28.83216 1465 ft 144 kts 86°
2026-05-04 20:44 46.92608 28.84685 1258 ft 144 kts 86°
2026-05-04 20:45 46.92639 28.86146 1047 ft 143 kts 86°
2026-05-04 20:45 46.92672 28.87602 857 ft 142 kts 86°
2026-05-04 20:45 46.92702 28.89047 668 ft 142 kts 87°
2026-05-04 20:45 46.92731 28.90485 477 ft 141 kts 88°
2026-05-04 20:46 46.92760 28.91861 379 ft 114 kts 89°
2026-05-04 20:46 46.92775 28.92663 359 ft 61 kts 89°
2026-05-04 20:46 46.92786 28.93247 343 ft 42 kts 87°
2026-05-04 20:46 46.92816 28.93414 338 ft 9 kts 49°
2026-05-04 20:47 46.92852 28.93447 339 ft 0 kts 19°
2026-05-04 20:48 46.92861 28.93450 339 ft 2 kts 13°
2026-05-04 20:49 46.92899 28.93449 336 ft 6 kts 349°
2026-05-04 20:49 46.92945 28.93419 337 ft 12 kts 338°
2026-05-04 20:49 46.93038 28.93419 339 ft 10 kts
2026-05-04 20:49 46.93091 28.93427 337 ft 8 kts
2026-05-04 20:50 46.93133 28.93436 334 ft 1 kts
2026-05-04 20:50 46.93148 28.93437 336 ft 4 kts
2026-05-04 20:50 46.93210 28.93449 338 ft 11 kts
2026-05-04 20:50 46.93288 28.93471 336 ft 10 kts
2026-05-04 20:51 46.93325 28.93471 336 ft 6 kts
2026-05-04 20:51 46.93377 28.93479 335 ft 9 kts
2026-05-04 20:51 46.93418 28.93544 336 ft 11 kts 92°
2026-05-04 20:51 46.93414 28.93599 332 ft 4 kts 95°
2026-05-04 20:52 46.93414 28.93615 330 ft 0 kts 88°
2026-05-04 20:52 46.93413 28.93622 329 ft 1 kts 103°
2026-05-04 20:52 46.93398 28.93634 331 ft 3 kts 168°
2026-05-04 20:52 46.93380 28.93617 331 ft 3 kts 224°
2026-05-04 20:53 46.93371 28.93605 333 ft 0 kts 219°
2026-05-04 20:53 46.93365 28.93599 331 ft 2 kts 215°
2026-05-04 20:53 46.93362 28.93596 332 ft 1 kts 213°
2026-05-04 20:53 46.93355 28.93590 335 ft 0 kts 209°